Retour au catalogue

FALCON 9 R/B

ActifHEO
NORAD 42433·ROCKET BODY·🇺🇸 United States

Lancé Mar 30, 2017 depuis Cape Canaveral Space Force Station

Loading…

Prochains Passages (prochaines 24 heures)

TLE

FraisSource: Space-Track

Époque: Sep 14, 2026, 06:07 UTC

1 42433U 17017B   26257.25522741  .00008026  00000-0  15894-2 0  9997
2 42433  25.8303 203.4888 6672495 344.7588   2.2011  3.08403891 92968

Suivez FALCON 9 R/B en temps réel avec AllMySat

Download on the App Store